Time,TemperatureF,DewpointF,PressureIn,WindDirection,WindDirectionDegrees,WindSpeedMPH,WindSpeedGustMPH,Humidity,HourlyPrecipIn,Conditions,Clouds,dailyrainin,SoftwareType,DateUTC
2013-01-23 00:00:00,37.0,37.0,29.94,WNW,290,6.0,-999.0,98,-99.99,,,-99.99,,2013-01-23 08:00:00,
2013-01-23 00:22:00,37.0,37.0,29.94,WNW,290,6.0,-999.0,98,-99.99,,,-99.99,,2013-01-23 08:22:00,
2013-01-23 00:32:00,37.0,37.0,29.94,WNW,290,6.0,-999.0,98,-99.99,,,-99.99,,2013-01-23 08:32:00,
2013-01-23 00:42:00,37.0,37.0,29.94,WNW,290,6.0,-999.0,98,-99.99,,,-99.99,,2013-01-23 08:42:00,
2013-01-23 00:52:00,37.0,37.0,29.94,WNW,290,6.0,-999.0,98,-99.99,,,-99.99,,2013-01-23 08:52:00,
2013-01-23 01:00:00,39.0,38.0,29.94,West,270,2.0,-999.0,98,-99.99,,,-99.99,,2013-01-23 09:00:00,
2013-01-23 01:22:00,39.0,38.0,29.94,West,270,2.0,-999.0,98,-99.99,,,-99.99,,2013-01-23 09:22:00,
2013-01-23 01:32:00,39.0,38.0,29.94,West,270,2.0,-999.0,98,-99.99,,,-99.99,,2013-01-23 09:32:00,
2013-01-23 01:42:00,39.0,38.0,29.94,West,270,2.0,-999.0,98,-99.99,,,-99.99,,2013-01-23 09:42:00,
2013-01-23 01:52:00,39.0,38.0,29.94,West,270,2.0,-999.0,98,-99.99,,,-99.99,,2013-01-23 09:52:00,
2013-01-23 02:00:00,39.0,39.0,29.94,WSW,240,1.0,-999.0,98,-99.99,,,-99.99,,2013-01-23 10:00:00,
2013-01-23 02:22:00,39.0,39.0,29.94,WSW,240,1.0,-999.0,98,-99.99,,,-99.99,,2013-01-23 10:22:00,
2013-01-23 02:32:00,39.0,39.0,29.94,WSW,240,1.0,-999.0,98,-99.99,,,-99.99,,2013-01-23 10:32:00,
2013-01-23 02:42:00,39.0,39.0,29.94,WSW,240,1.0,-999.0,98,-99.99,,,-99.99,,2013-01-23 10:42:00,
2013-01-23 02:52:00,39.0,39.0,29.94,WSW,240,1.0,-999.0,98,-99.99,,,-99.99,,2013-01-23 10:52:00,
2013-01-23 03:00:00,38.0,38.0,29.93,WNW,300,2.0,-999.0,98,-99.99,,,-99.99,,2013-01-23 11:00:00,
2013-01-23 03:22:00,38.0,38.0,29.93,WNW,300,2.0,-999.0,98,-99.99,,,-99.99,,2013-01-23 11:22:00,
2013-01-23 03:32:00,38.0,38.0,29.93,WNW,300,2.0,-999.0,98,-99.99,,,-99.99,,2013-01-23 11:32:00,
2013-01-23 03:42:00,38.0,38.0,29.93,WNW,300,2.0,-999.0,98,-99.99,,,-99.99,,2013-01-23 11:42:00,
2013-01-23 03:52:00,38.0,38.0,29.93,WNW,300,2.0,-999.0,98,-99.99,,,-99.99,,2013-01-23 11:52:00,
2013-01-23 04:00:00,39.0,39.0,29.95,West,260,2.0,-999.0,98,-99.99,,,-99.99,,2013-01-23 12:00:00,
2013-01-23 04:22:00,39.0,39.0,29.95,West,260,2.0,-999.0,98,-99.99,,,-99.99,,2013-01-23 12:22:00,
2013-01-23 04:32:00,39.0,39.0,29.95,West,260,2.0,-999.0,98,-99.99,,,-99.99,,2013-01-23 12:32:00,
2013-01-23 04:42:00,39.0,39.0,29.95,West,260,2.0,-999.0,98,-99.99,,,-99.99,,2013-01-23 12:42:00,
2013-01-23 04:52:00,39.0,39.0,29.95,West,260,2.0,-999.0,98,-99.99,,,-99.99,,2013-01-23 12:52:00,
2013-01-23 05:00:00,40.0,40.0,29.92,West,260,1.0,-999.0,99,-99.99,,,-99.99,,2013-01-23 13:00:00,
2013-01-23 05:22:00,40.0,40.0,29.92,West,260,1.0,-999.0,99,-99.99,,,-99.99,,2013-01-23 13:22:00,
2013-01-23 05:32:00,40.0,40.0,29.92,West,260,1.0,-999.0,99,-99.99,,,-99.99,,2013-01-23 13:32:00,
2013-01-23 05:42:00,40.0,40.0,29.92,West,260,1.0,-999.0,99,-99.99,,,-99.99,,2013-01-23 13:42:00,
2013-01-23 05:52:00,40.0,40.0,29.92,West,260,1.0,-999.0,99,-99.99,,,-99.99,,2013-01-23 13:52:00,
2013-01-23 06:00:00,38.0,37.0,29.89,WNW,300,7.0,-999.0,99,-99.99,,,-99.99,,2013-01-23 14:00:00,
2013-01-23 06:22:00,38.0,37.0,29.89,WNW,300,7.0,-999.0,99,-99.99,,,-99.99,,2013-01-23 14:22:00,
2013-01-23 06:33:00,38.0,37.0,29.89,WNW,300,7.0,-999.0,99,-99.99,,,-99.99,,2013-01-23 14:33:00,
2013-01-23 06:42:00,38.0,37.0,29.89,WNW,300,7.0,-999.0,99,-99.99,,,-99.99,,2013-01-23 14:42:00,
2013-01-23 06:52:00,38.0,37.0,29.89,WNW,300,7.0,-999.0,99,-99.99,,,-99.99,,2013-01-23 14:52:00,
2013-01-23 07:00:00,38.0,38.0,29.89,WNW,290,2.0,-999.0,99,-99.99,,,-99.99,,2013-01-23 15:00:00,
2013-01-23 07:22:00,38.0,38.0,29.89,WNW,290,2.0,-999.0,99,-99.99,,,-99.99,,2013-01-23 15:22:00,
2013-01-23 07:32:00,38.0,38.0,29.89,WNW,290,2.0,-999.0,99,-99.99,,,-99.99,,2013-01-23 15:32:00,
2013-01-23 07:42:00,38.0,38.0,29.89,WNW,290,2.0,-999.0,99,-99.99,,,-99.99,,2013-01-23 15:42:00,
2013-01-23 07:52:00,38.0,38.0,29.89,WNW,290,2.0,-999.0,99,-99.99,,,-99.99,,2013-01-23 15:52:00,
2013-01-23 08:00:00,40.0,39.0,29.88,West,270,5.0,-999.0,98,-99.99,,,-99.99,,2013-01-23 16:00:00,
2013-01-23 08:22:00,40.0,39.0,29.88,West,270,5.0,-999.0,98,-99.99,,,-99.99,,2013-01-23 16:22:00,
2013-01-23 08:32:00,40.0,39.0,29.88,West,270,5.0,-999.0,98,-99.99,,,-99.99,,2013-01-23 16:32:00,
2013-01-23 08:42:00,40.0,39.0,29.88,West,270,5.0,-999.0,98,-99.99,,,-99.99,,2013-01-23 16:42:00,
2013-01-23 08:52:00,40.0,39.0,29.88,West,270,5.0,-999.0,98,-99.99,,,-99.99,,2013-01-23 16:52:00,
2013-01-23 09:00:00,38.0,38.0,29.87,West,280,5.0,-999.0,98,-99.99,,,-99.99,,2013-01-23 17:00:00,
2013-01-23 09:22:00,38.0,38.0,29.87,West,280,5.0,-999.0,98,-99.99,,,-99.99,,2013-01-23 17:22:00,
2013-01-23 09:33:00,38.0,38.0,29.87,West,280,5.0,-999.0,98,-99.99,,,-99.99,,2013-01-23 17:33:00,
2013-01-23 09:42:00,38.0,38.0,29.87,West,280,5.0,-999.0,98,-99.99,,,-99.99,,2013-01-23 17:42:00,
2013-01-23 09:52:00,38.0,38.0,29.87,West,280,5.0,-999.0,98,-99.99,,,-99.99,,2013-01-23 17:52:00,
2013-01-23 10:00:00,38.0,38.0,29.86,WNW,300,2.0,-999.0,99,-99.99,,,-99.99,,2013-01-23 18:00:00,
2013-01-23 10:22:00,38.0,38.0,29.86,WNW,300,2.0,-999.0,99,-99.99,,,-99.99,,2013-01-23 18:22:00,
2013-01-23 10:32:00,38.0,38.0,29.86,WNW,300,2.0,-999.0,99,-99.99,,,-99.99,,2013-01-23 18:32:00,
2013-01-23 10:42:00,38.0,38.0,29.86,WNW,300,2.0,-999.0,99,-99.99,,,-99.99,,2013-01-23 18:42:00,
2013-01-23 10:52:00,38.0,38.0,29.86,WNW,300,2.0,-999.0,99,-99.99,,,-99.99,,2013-01-23 18:52:00,
2013-01-23 11:00:00,41.0,40.0,29.86,West,260,5.0,-999.0,98,-99.99,,,-99.99,,2013-01-23 19:00:00,
2013-01-23 11:22:00,41.0,40.0,29.86,West,260,5.0,-999.0,98,-99.99,,,-99.99,,2013-01-23 19:22:00,
2013-01-23 11:32:00,41.0,40.0,29.86,West,260,5.0,-999.0,98,-99.99,,,-99.99,,2013-01-23 19:32:00,
2013-01-23 11:42:00,41.0,40.0,29.86,West,260,5.0,-999.0,98,-99.99,,,-99.99,,2013-01-23 19:42:00,
2013-01-23 11:52:00,41.0,40.0,29.86,West,260,5.0,-999.0,98,-99.99,,,-99.99,,2013-01-23 19:52:00,
2013-01-23 12:00:00,40.0,39.0,29.85,NW,310,5.0,-999.0,98,-99.99,,,-99.99,,2013-01-23 20:00:00,
2013-01-23 12:22:00,40.0,39.0,29.85,NW,310,5.0,-999.0,98,-99.99,,,-99.99,,2013-01-23 20:22:00,
2013-01-23 12:32:00,40.0,39.0,29.85,NW,310,5.0,-999.0,98,-99.99,,,-99.99,,2013-01-23 20:32:00,
2013-01-23 12:42:00,40.0,39.0,29.85,NW,310,5.0,-999.0,98,-99.99,,,-99.99,,2013-01-23 20:42:00,
2013-01-23 12:53:00,40.0,39.0,29.85,NW,310,5.0,-999.0,98,-99.99,,,-99.99,,2013-01-23 20:53:00,
2013-01-23 13:00:00,40.0,39.0,29.83,WNW,300,5.0,-999.0,98,-99.99,,,-99.99,,2013-01-23 21:00:00,
2013-01-23 13:22:00,40.0,39.0,29.83,WNW,300,5.0,-999.0,98,-99.99,,,-99.99,,2013-01-23 21:22:00,
2013-01-23 13:32:00,40.0,39.0,29.83,WNW,300,5.0,-999.0,98,-99.99,,,-99.99,,2013-01-23 21:32:00,
2013-01-23 13:42:00,40.0,39.0,29.83,WNW,300,5.0,-999.0,98,-99.99,,,-99.99,,2013-01-23 21:42:00,
2013-01-23 13:52:00,40.0,39.0,29.83,WNW,300,5.0,-999.0,98,-99.99,,,-99.99,,2013-01-23 21:52:00,
2013-01-23 14:00:00,40.0,39.0,29.83,North,0,0.0,-999.0,98,-99.99,,,-99.99,,2013-01-23 22:00:00,
2013-01-23 14:22:00,40.0,39.0,29.83,North,0,0.0,-999.0,98,-99.99,,,-99.99,,2013-01-23 22:22:00,
2013-01-23 14:32:00,40.0,39.0,29.83,North,0,0.0,-999.0,98,-99.99,,,-99.99,,2013-01-23 22:32:00,
2013-01-23 14:42:00,40.0,39.0,29.83,North,0,0.0,-999.0,98,-99.99,,,-99.99,,2013-01-23 22:42:00,
2013-01-23 14:52:00,40.0,39.0,29.83,North,0,0.0,-999.0,98,-99.99,,,-99.99,,2013-01-23 22:52:00,
2013-01-23 15:00:00,41.0,40.0,29.83,North,0,0.0,-999.0,99,-99.99,,,-99.99,,2013-01-23 23:00:00,
2013-01-23 15:22:00,41.0,40.0,29.83,North,0,0.0,-999.0,99,-99.99,,,-99.99,,2013-01-23 23:22:00,
2013-01-23 15:32:00,41.0,40.0,29.83,North,0,0.0,-999.0,99,-99.99,,,-99.99,,2013-01-23 23:32:00,
2013-01-23 15:42:00,41.0,40.0,29.83,North,0,0.0,-999.0,99,-99.99,,,-99.99,,2013-01-23 23:42:00,
2013-01-23 15:52:00,41.0,40.0,29.83,North,0,0.0,-999.0,99,-99.99,,,-99.99,,2013-01-23 23:52:00,
2013-01-23 16:00:00,41.0,41.0,29.85,North,10,2.0,-999.0,99,-99.99,,,-99.99,,2013-01-24 00:00:00,
2013-01-23 16:22:00,41.0,41.0,29.85,North,10,2.0,-999.0,99,-99.99,,,-99.99,,2013-01-24 00:22:00,
2013-01-23 16:32:00,41.0,41.0,29.85,North,10,2.0,-999.0,99,-99.99,,,-99.99,,2013-01-24 00:32:00,
2013-01-23 16:42:00,41.0,41.0,29.85,North,10,2.0,-999.0,99,-99.99,,,-99.99,,2013-01-24 00:42:00,
2013-01-23 16:52:00,41.0,41.0,29.85,North,10,2.0,-999.0,99,-99.99,,,-99.99,,2013-01-24 00:52:00,
2013-01-23 17:00:00,40.0,40.0,29.87,WNW,290,1.0,-999.0,99,-99.99,,,-99.99,,2013-01-24 01:00:00,
2013-01-23 17:22:00,40.0,40.0,29.87,WNW,290,1.0,-999.0,99,-99.99,,,-99.99,,2013-01-24 01:22:00,
2013-01-23 17:32:00,40.0,40.0,29.87,WNW,290,1.0,-999.0,99,-99.99,,,-99.99,,2013-01-24 01:32:00,
2013-01-23 17:42:00,40.0,40.0,29.87,WNW,290,1.0,-999.0,99,-99.99,,,-99.99,,2013-01-24 01:42:00,
2013-01-23 17:52:00,40.0,40.0,29.87,WNW,290,1.0,-999.0,99,-99.99,,,-99.99,,2013-01-24 01:52:00,
2013-01-23 18:00:00,41.0,41.0,29.90,South,170,1.0,-999.0,99,-99.99,,,-99.99,,2013-01-24 02:00:00,
2013-01-23 18:22:00,41.0,41.0,29.90,South,170,1.0,-999.0,99,-99.99,,,-99.99,,2013-01-24 02:22:00,
2013-01-23 18:32:00,41.0,41.0,29.90,South,170,1.0,-999.0,99,-99.99,,,-99.99,,2013-01-24 02:32:00,
2013-01-23 18:42:00,41.0,41.0,29.90,South,170,1.0,-999.0,99,-99.99,,,-99.99,,2013-01-24 02:42:00,
2013-01-23 18:52:00,41.0,41.0,29.90,South,170,1.0,-999.0,99,-99.99,,,-99.99,,2013-01-24 02:52:00,
2013-01-23 19:00:00,40.0,39.0,29.92,North,0,0.0,-999.0,99,-99.99,,,-99.99,,2013-01-24 03:00:00,
2013-01-23 19:22:00,40.0,39.0,29.92,North,0,0.0,-999.0,99,-99.99,,,-99.99,,2013-01-24 03:22:00,
2013-01-23 19:32:00,40.0,39.0,29.92,North,0,0.0,-999.0,99,-99.99,,,-99.99,,2013-01-24 03:32:00,
2013-01-23 19:42:00,40.0,39.0,29.92,North,0,0.0,-999.0,99,-99.99,,,-99.99,,2013-01-24 03:42:00,
2013-01-23 19:52:00,40.0,39.0,29.92,North,0,0.0,-999.0,99,-99.99,,,-99.99,,2013-01-24 03:52:00,
2013-01-23 20:22:00,40.0,40.0,29.95,North,0,0.0,-999.0,99,-99.99,,,-99.99,,2013-01-24 04:22:00,
2013-01-23 20:32:00,40.0,40.0,29.95,North,0,0.0,-999.0,99,-99.99,,,-99.99,,2013-01-24 04:32:00,
2013-01-23 20:42:00,40.0,40.0,29.95,North,0,0.0,-999.0,99,-99.99,,,-99.99,,2013-01-24 04:42:00,
2013-01-23 20:52:00,40.0,40.0,29.95,North,0,0.0,-999.0,99,-99.99,,,-99.99,,2013-01-24 04:52:00,
2013-01-23 21:00:00,40.0,40.0,29.99,SSE,160,2.0,-999.0,100,-99.99,,,-99.99,,2013-01-24 05:00:00,
2013-01-23 21:22:00,40.0,40.0,29.99,SSE,160,2.0,-999.0,100,-99.99,,,-99.99,,2013-01-24 05:22:00,
2013-01-23 21:32:00,40.0,40.0,29.99,SSE,160,2.0,-999.0,100,-99.99,,,-99.99,,2013-01-24 05:32:00,
2013-01-23 21:42:00,40.0,40.0,29.99,SSE,160,2.0,-999.0,100,-99.99,,,-99.99,,2013-01-24 05:42:00,
2013-01-23 21:52:00,40.0,40.0,29.99,SSE,160,2.0,-999.0,100,-99.99,,,-99.99,,2013-01-24 05:52:00,
2013-01-23 22:00:00,44.0,40.0,30.03,SW,230,1.0,-999.0,85,-99.99,,,-99.99,,2013-01-24 06:00:00,
2013-01-23 22:22:00,44.0,40.0,30.03,SW,230,1.0,-999.0,85,-99.99,,,-99.99,,2013-01-24 06:22:00,
2013-01-23 22:32:00,44.0,40.0,30.03,SW,230,1.0,-999.0,85,-99.99,,,-99.99,,2013-01-24 06:32:00,
2013-01-23 22:42:00,44.0,40.0,30.03,SW,230,1.0,-999.0,85,-99.99,,,-99.99,,2013-01-24 06:42:00,
2013-01-23 22:52:00,44.0,40.0,30.03,SW,230,1.0,-999.0,85,-99.99,,,-99.99,,2013-01-24 06:52:00,
2013-01-23 23:00:00,43.0,42.0,30.06,WSW,240,2.0,-999.0,95,-99.99,,,-99.99,,2013-01-24 07:00:00,
2013-01-23 23:22:00,43.0,42.0,30.06,WSW,240,2.0,-999.0,95,-99.99,,,-99.99,,2013-01-24 07:22:00,
2013-01-23 23:32:00,43.0,42.0,30.06,WSW,240,2.0,-999.0,95,-99.99,,,-99.99,,2013-01-24 07:32:00,
2013-01-23 23:42:00,43.0,42.0,30.06,WSW,240,2.0,-999.0,95,-99.99,,,-99.99,,2013-01-24 07:42:00,
2013-01-23 23:52:00,43.0,42.0,30.06,WSW,240,2.0,-999.0,95,-99.99,,,-99.99,,2013-01-24 07:52:00,